Terminal Aerodrome Forecast
Issued by NWS

Home | Current Version | Previous Version | Text Only | Print | Product List | Glossary On
Versions: 1 2 3 4 5 6 7 8 9 10 11 12 13 14 15 16 17 18 19 20 21 22 23 24 25 26 27 28 29 30 31 32 33 34 35 36 37 38 39 40 41
000
FTUS45 KSLC 081122
TAFPVU
TAF
KPVU 081122Z 0812/0912 00000KT 5SM BR SKC
     FM081800 26005KT 6SM HZ FEW200
     FM090500 00000KT 3SM BR SKC
     FM091000 00000KT 1SM BR FEW002
      AMD LTD TO CLD VIS AND WIND=

USA.gov is the U.S. government's official web portal to all federal, state and local government web resources and services.